When you browse on this site, cookies collect data to enhance your experience and personalize the content and advertising you see.
Visit our Privacy Policy to learn more. By continuing to use the site, you agree to this use of cookies and data.
  • In Portugal
  • List of Countries
  • For 7 days
  • Water Temperature
  • Satellite Maps
  • Weather Map
  • Weather Widgets
  • user-avatar
    Login

    Hourly Weather Vratsa

    Today, 18 April, Thursday

    Time Temperature Precipitation Wind Pressure Humidity
    00:00 +4°C° 0 mm 0 mps 711 mmHg 84%
    01:00 +5°C° 0 mm 1 mps 711 mmHg 87%
    02:00 +5°C° 0 mm 1 mps 711 mmHg 90%
    03:00 +4°C° 0 mm 1 mps 711 mmHg 92%
    04:00 +4°C° 0 mm 1 mps 711 mmHg 93%
    05:00 +3°C° 0 mm 1 mps 711 mmHg 94%
    06:00 +4°C° 0 mm 1 mps 712 mmHg 90%
    07:00 +5°C° 0 mm 1 mps 712 mmHg 86%
    08:00 +7°C° 0 mm 1 mps 713 mmHg 78%
    09:00 +8°C° 0 mm 1 mps 713 mmHg 74%
    10:00 +8°C° 0 mm 2 mps 713 mmHg 69%
    11:00 +9°C° 0 mm 3 mps 713 mmHg 65%
    12:00 +9°C° 0.1 mm 3 mps 713 mmHg 65%
    13:00 +10°C° 0.1 mm 3 mps 713 mmHg 65%
    14:00 +10°C° 0.1 mm 3 mps 713 mmHg 66%
    15:00 +9°C° 0.2 mm 3 mps 713 mmHg 70%
    16:00 +9°C° 0.2 mm 3 mps 713 mmHg 74%
    17:00 +8°C° 0.2 mm 4 mps 713 mmHg 78%
    18:00 +8°C° 0 mm 3 mps 713 mmHg 84%
    19:00 +6°C° 0 mm 2 mps 714 mmHg 89%
    20:00 +6°C° 0 mm 1 mps 714 mmHg 94%
    21:00 +6°C° 0 mm 1 mps 714 mmHg 94%
    22:00 +6°C° 0 mm 1 mps 715 mmHg 94%
    23:00 +5°C° 0 mm 1 mps 715 mmHg 94%

    Tomorrow, 19 April, Friday

    Time Temperature Precipitation Wind Pressure Humidity
    00:00 +5°C° 0 mm 1 mps 715 mmHg 91%
    01:00 +4°C° 0 mm 0 mps 715 mmHg 88%
    02:00 +5°C° 0 mm 0 mps 715 mmHg 85%
    03:00 +5°C° 0 mm 1 mps 715 mmHg 83%
    04:00 +5°C° 0 mm 1 mps 715 mmHg 82%
    05:00 +5°C° 0 mm 1 mps 714 mmHg 80%
    06:00 +6°C° 0 mm 1 mps 715 mmHg 76%
    07:00 +8°C° 0 mm 1 mps 715 mmHg 72%
    08:00 +9°C° 0 mm 1 mps 715 mmHg 67%
    09:00 +10°C° 0 mm 2 mps 715 mmHg 62%
    10:00 +12°C° 0 mm 2 mps 714 mmHg 58%
    11:00 +13°C° 0 mm 3 mps 714 mmHg 53%
    12:00 +13°C° 0.1 mm 3 mps 714 mmHg 52%
    13:00 +14°C° 0.1 mm 4 mps 713 mmHg 51%
    14:00 +14°C° 0.1 mm 5 mps 713 mmHg 50%
    15:00 +14°C° 0.4 mm 4 mps 713 mmHg 53%
    16:00 +13°C° 0.4 mm 4 mps 712 mmHg 56%
    17:00 +13°C° 0.4 mm 4 mps 712 mmHg 60%
    18:00 +11°C° 1.1 mm 3 mps 712 mmHg 68%
    19:00 +9°C° 1.1 mm 3 mps 712 mmHg 76%
    20:00 +8°C° 1.1 mm 2 mps 712 mmHg 85%
    21:00 +7°C° 0 mm 2 mps 713 mmHg 86%
    22:00 +7°C° 0 mm 1 mps 713 mmHg 86%
    23:00 +6°C° 0 mm 1 mps 714 mmHg 87%

    Day after tomorrow, 20 April, Saturday

    Time Temperature Precipitation Wind Pressure Humidity
    00:00 +6°C° 0 mm 1 mps 714 mmHg 87%
    01:00 +6°C° 0 mm 1 mps 714 mmHg 87%
    02:00 +5°C° 0 mm 1 mps 715 mmHg 87%
    03:00 +5°C° 0 mm 1 mps 715 mmHg 90%
    04:00 +5°C° 0 mm 1 mps 715 mmHg 93%
    05:00 +4°C° 0 mm 1 mps 715 mmHg 96%
    06:00 +5°C° 0 mm 1 mps 715 mmHg 90%
    07:00 +6°C° 0 mm 1 mps 716 mmHg 84%
    08:00 +6°C° 0 mm 1 mps 716 mmHg 79%
    09:00 +8°C° 0 mm 1 mps 716 mmHg 69%
    10:00 +9°C° 0 mm 1 mps 716 mmHg 60%
    11:00 +9°C° 0 mm 2 mps 716 mmHg 50%
    12:00 +10°C° 0 mm 2 mps 716 mmHg 49%
    13:00 +10°C° 0 mm 2 mps 716 mmHg 47%
    14:00 +12°C° 0 mm 2 mps 716 mmHg 46%
    15:00 +12°C° 0 mm 2 mps 716 mmHg 48%
    16:00 +10°C° 0 mm 2 mps 715 mmHg 49%
    17:00 +10°C° 0 mm 2 mps 715 mmHg 50%
    18:00 +8°C° 0 mm 2 mps 715 mmHg 57%
    19:00 +7°C° 0 mm 2 mps 715 mmHg 64%
    20:00 +6°C° 0 mm 1 mps 715 mmHg 70%
    21:00 +6°C° 0 mm 1 mps 715 mmHg 70%
    22:00 +4°C° 0 mm 2 mps 715 mmHg 70%
    23:00 +4°C° 0 mm 2 mps 715 mmHg 70%

    21 April, Sunday

    Time Temperature Precipitation Wind Pressure Humidity
    00:00 +4°C° 0 mm 2 mps 715 mmHg 68%
    01:00 +4°C° 0 mm 2 mps 715 mmHg 67%
    02:00 +4°C° 0 mm 2 mps 715 mmHg 66%
    03:00 +3°C° 0 mm 2 mps 715 mmHg 66%
    04:00 +3°C° 0 mm 2 mps 714 mmHg 67%
    05:00 +3°C° 0 mm 2 mps 714 mmHg 67%
    06:00 +5°C° 0 mm 2 mps 714 mmHg 64%
    07:00 +6°C° 0 mm 2 mps 714 mmHg 61%
    08:00 +8°C° 0 mm 2 mps 714 mmHg 57%
    09:00 +11°C° 0 mm 1 mps 714 mmHg 52%
    10:00 +13°C° 0 mm 1 mps 714 mmHg 46%
    11:00 +14°C° 0 mm 0 mps 714 mmHg 40%
    12:00 +15°C° 0 mm 1 mps 714 mmHg 39%
    13:00 +16°C° 0 mm 1 mps 713 mmHg 38%
    14:00 +18°C° 0 mm 1 mps 713 mmHg 38%
    15:00 +16°C° 0 mm 1 mps 712 mmHg 40%
    16:00 +16°C° 0 mm 1 mps 712 mmHg 42%
    17:00 +15°C° 0 mm 2 mps 712 mmHg 44%
    18:00 +13°C° 0 mm 1 mps 711 mmHg 50%
    19:00 +11°C° 0 mm 1 mps 711 mmHg 57%
    20:00 +9°C° 0 mm 1 mps 711 mmHg 63%
    21:00 +9°C° 0 mm 1 mps 711 mmHg 64%
    22:00 +8°C° 0 mm 1 mps 712 mmHg 65%
    23:00 +7°C° 0 mm 2 mps 712 mmHg 66%

    22 April, Monday

    Time Temperature Precipitation Wind Pressure Humidity
    00:00 +7°C° 0 mm 2 mps 712 mmHg 66%
    01:00 +6°C° 0 mm 2 mps 712 mmHg 66%
    02:00 +6°C° 0 mm 2 mps 711 mmHg 66%
    03:00 +5°C° 0 mm 2 mps 711 mmHg 66%
    04:00 +5°C° 0 mm 2 mps 711 mmHg 66%
    05:00 +5°C° 0 mm 2 mps 711 mmHg 66%
    06:00 +6°C° 0 mm 2 mps 712 mmHg 63%
    07:00 +9°C° 0 mm 1 mps 712 mmHg 60%
    08:00 +11°C° 0 mm 1 mps 712 mmHg 58%
    09:00 +12°C° 0 mm 1 mps 712 mmHg 53%
    10:00 +14°C° 0 mm 2 mps 712 mmHg 48%
    11:00 +16°C° 0 mm 2 mps 712 mmHg 43%
    12:00 +16°C° 0 mm 2 mps 712 mmHg 42%
    13:00 +17°C° 0 mm 3 mps 712 mmHg 41%
    14:00 +18°C° 0 mm 3 mps 712 mmHg 40%
    15:00 +17°C° 0 mm 3 mps 711 mmHg 43%
    16:00 +17°C° 0 mm 3 mps 711 mmHg 46%
    17:00 +17°C° 0 mm 3 mps 711 mmHg 49%
    18:00 +14°C° 0 mm 3 mps 711 mmHg 57%
    19:00 +12°C° 0 mm 3 mps 711 mmHg 64%
    20:00 +10°C° 0 mm 2 mps 711 mmHg 72%
    21:00 +9°C° 0 mm 2 mps 711 mmHg 75%
    22:00 +9°C° 0 mm 2 mps 711 mmHg 77%
    23:00 +8°C° 0 mm 2 mps 712 mmHg 79%

    23 April, Tuesday

    Time Temperature Precipitation Wind Pressure Humidity
    00:00 +8°C° 0 mm 2 mps 712 mmHg 81%
    01:00 +8°C° 0 mm 2 mps 712 mmHg 83%
    02:00 +8°C° 0 mm 2 mps 712 mmHg 84%
    03:00 +7°C° 0 mm 2 mps 712 mmHg 84%
    04:00 +7°C° 0 mm 2 mps 712 mmHg 84%
    05:00 +7°C° 0 mm 2 mps 712 mmHg 84%
    06:00 +7°C° 0.1 mm 2 mps 712 mmHg 81%
    07:00 +8°C° 0.1 mm 2 mps 712 mmHg 79%
    08:00 +8°C° 0.1 mm 2 mps 713 mmHg 76%
    09:00 +9°C° 0.2 mm 2 mps 713 mmHg 75%
    10:00 +9°C° 0.2 mm 3 mps 712 mmHg 73%
    11:00 +10°C° 0.2 mm 3 mps 712 mmHg 72%
    12:00 +11°C° 0 mm 3 mps 712 mmHg 66%
    13:00 +13°C° 0 mm 3 mps 712 mmHg 59%
    14:00 +16°C° 0 mm 3 mps 711 mmHg 52%
    15:00 +16°C° 0 mm 3 mps 711 mmHg 53%
    16:00 +16°C° 0 mm 3 mps 711 mmHg 53%
    17:00 +16°C° 0 mm 3 mps 711 mmHg 54%
    18:00 +13°C° 0 mm 3 mps 710 mmHg 61%
    19:00 +12°C° 0 mm 2 mps 710 mmHg 68%
    20:00 +9°C° 0 mm 2 mps 710 mmHg 75%
    21:00 +9°C° 0 mm 2 mps 710 mmHg 77%
    22:00 +8°C° 0 mm 2 mps 711 mmHg 79%
    23:00 +7°C° 0 mm 2 mps 711 mmHg 81%
    Show more